Beaufort, NC

11:56 AM EDT on October 19, 2019 (GMT -0400)
Smith

Weather History for KMRH - June, 2019

Change the Weather History Date:

Monday, June 3, 2019

  Actual Average Record
Temperature  
Mean Temperature 77 °F -  
Max Temperature 84 °F 83 °F 90 °F (1985)
Min Temperature 72 °F 65 °F 53 °F (1972)
Cooling Degree Days 12    
Growing Degree Days 27 (Base 50)    
Moisture  
Dew Point 65 °F    
Average Humidity 64    
Maximum Humidity 93    
Minimum Humidity 48    
Precipitation  
Precipitation 0.00 in - - ()
Sea Level Pressure  
Sea Level Pressure 29.92 in    
Wind  
Wind Speed 7 mph (NNE)    
Max Wind Speed 15 mph    
Max Gust Speed 23 mph    
Visibility 10 miles    
Events      
Averages and records for this station are not official NWS values.
T = Trace of Precipitation, MM = Missing Value Source: NWS Daily Summary

Daily Weather History Graph

Daily Weather History Graph

Search for Another Location

Airport or City:

Astronomy

Jun. 03, 2019 Rise Set
Actual Time 5:54 AM EDT 8:15 PM EDT
Civil Twilight 5:24 AM EDT 8:44 PM EDT
Nautical Twilight 4:49 AM EDT 9:20 PM EDT
Astronomical Twilight 4:10 AM EDT 10:00 PM EDT
Moon 6:10 AM EDT (6/3) 8:39 PM EDT (6/3)
Length of Visible Light 15h 19m
Length of Day
14h 21m
New Moon, 0% of the Moon is Illuminated
Jun 3
New Moon
Jun 10
First Quarter
Jun 17
Full
Jun 25
Last Quarter
Jul 2
New

Hourly Weather History & Observations

Time (EDT) Temp. Heat Index Dew Point Humidity Pressure Visibility Wind Dir Wind Speed Gust Speed Precip Events Conditions
12:58 AM 77.0 °F - 72.0 °F 84% 29.83 in 10.0 mi South 5.8 mph - N/A   Clear
1:58 AM 75.0 °F - 70.0 °F 84% 29.82 in 10.0 mi SSW 5.8 mph - N/A   Clear
2:58 AM 75.9 °F - 70.0 °F 82% 29.81 in 10.0 mi West 4.6 mph - N/A   Clear
3:58 AM 75.9 °F - 70.0 °F 82% 29.80 in 10.0 mi West 4.6 mph - N/A   Clear
4:58 AM 75.0 °F - 70.0 °F 84% 29.81 in 10.0 mi Calm Calm - N/A   Clear
5:58 AM 72.0 °F - 70.0 °F 93% 29.83 in 6.0 mi Calm Calm - N/A   Clear
6:58 AM 78.1 °F - 73.0 °F 84% 29.85 in 10.0 mi NW 6.9 mph - N/A   Mostly Cloudy
7:58 AM 77.0 °F - 69.1 °F 76% 29.86 in 10.0 mi NNW 11.5 mph - N/A   Clear
8:58 AM 80.1 °F 82.9 °F 69.1 °F 69% 29.88 in 10.0 mi North 9.2 mph - N/A   Clear
9:58 AM 82.0 °F 84.9 °F 68.0 °F 62% 29.89 in 10.0 mi North 13.8 mph - N/A   Clear
10:46 AM 81.0 °F 83.8 °F 68.0 °F 65% 29.90 in 10.0 mi NNE 15.0 mph - N/A   Mostly Cloudy
10:58 AM 80.1 °F 82.7 °F 68.0 °F 67% 29.91 in 10.0 mi North 12.7 mph - N/A   Overcast
11:33 AM 81.0 °F 83.0 °F 66.0 °F 60% 29.93 in 10.0 mi NNE 12.7 mph 23.0 mph N/A   Scattered Clouds
11:58 AM 81.0 °F 83.0 °F 66.0 °F 60% 29.94 in 10.0 mi NNE 15.0 mph 23.0 mph N/A   Mostly Cloudy
12:58 PM 82.0 °F 83.8 °F 64.9 °F 56% 29.94 in 10.0 mi NE 11.5 mph - N/A   Mostly Cloudy
1:58 PM 82.9 °F 84.4 °F 64.0 °F 53% 29.94 in 10.0 mi NE 11.5 mph - N/A   Mostly Cloudy
2:58 PM 82.0 °F 83.1 °F 63.0 °F 52% 29.94 in 10.0 mi NE 10.4 mph 19.6 mph N/A   Partly Cloudy
3:58 PM 82.9 °F 83.7 °F 62.1 °F 49% 29.95 in 10.0 mi NNE 10.4 mph - N/A   Clear
4:58 PM 82.9 °F 83.7 °F 62.1 °F 49% 29.95 in 10.0 mi NNE 10.4 mph - N/A   Clear
5:58 PM 82.0 °F 82.7 °F 61.0 °F 49% 29.95 in 10.0 mi NE 6.9 mph - N/A   Partly Cloudy
6:58 PM 80.1 °F 80.7 °F 59.0 °F 48% 29.97 in 10.0 mi NE 6.9 mph - N/A   Clear
7:58 PM 77.0 °F - 57.9 °F 52% 30.00 in 10.0 mi NE 6.9 mph - N/A   Clear
8:58 PM 73.9 °F - 57.0 °F 55% 30.02 in 10.0 mi East 10.4 mph - N/A   Clear
9:58 PM 73.9 °F - 54.0 °F 50% 30.05 in 10.0 mi East 6.9 mph - N/A   Clear
10:58 PM 73.0 °F - 54.0 °F 51% 30.06 in 10.0 mi East 6.9 mph - N/A   Clear
11:58 PM 72.0 °F - 55.0 °F 55% 30.07 in 10.0 mi East 4.6 mph - N/A   Clear